Location: Unspecified
(43.8044°N, 11.0278°E)
Time: 14:02:29
(UTC+01:00)

Cosmos 2058 - Visible Passes

Search period start: 19 December 2014 00:00
Search period end: 29 December 2014 00:00
Orbit: 568 x 593 km, 82.5° (Epoch: 18 December)

Date Brightness Start Highest point End Pass type
(mag) Time Alt. Az. Time Alt. Az. Time Alt. Az.
26 Dec 5.8 06:30:42 10° NE 06:32:34 13° ENE 06:34:27 10° E visible
27 Dec 5.6 06:35:06 10° NNE 06:37:51 17° ENE 06:40:37 10° ESE visible
28 Dec 5.3 06:39:47 10° NNE 06:43:06 23° ENE 06:46:25 10° SE visible
